Regional Weather Roundup
Issued by NWS

Home | Current Version | Previous Version | Graphics & Text | Print | Product List | Glossary On
Versions: 1 2 3 4 5 6 7 8 9 10 11 12 13 14 15 16 17 18 19 20 21 22 23 24 25 26 27 28 29 30 31 32 33 34 35 36 37 38 39 40 41 42 43 44 45 46 47 48 49 50
000
ASUS43 KDTX 281210
RWRMI
MICHIGAN HOURLY REGIONAL WEATHER ROUNDUP
NATIONAL WEATHER SERVICE DETROIT/PONTIAC MI
800 AM EDT MON JUL 28 2014

NOTE: "FAIR" INDICATES FEW OR NO CLOUDS BELOW 12,000 FEET WITH NO
SIGNIFICANT WEATHER AND/OR OBSTRUCTION TO VISIBILITY.

MIZ047>049-052>055-059>063-066>070-074>076-081>083-281300-
SOUTHEAST LOWER MICHIGAN

CITY           SKY/WX    TMP DP  RH WIND       PRES   REMARKS
ADRIAN         CLOUDY    63  58  83 N12       29.86R
6HR MIN TEMP:  60; 6HR MAX TEMP:  63;

ALMA           SUNNY     58  55  92 NW8       29.92R
ANN ARBOR      CLOUDY    62  55  77 N13G22    29.83R
BAD AXE        CLOUDY    57  51  79 N8G18     29.86R
6HR MIN TEMP:  57; 6HR MAX TEMP:  62;

CARO           CLOUDY    60  57  89 N5        29.86R
DETROIT CITY   LGT RAIN  65  55  70 N14G26    29.80R
6HR MIN TEMP:  64; 6HR MAX TEMP:  66; 6HR PCP: TRACE;

DETROIT        CLOUDY    63  57  81 N15G21    29.81R
6HR MIN TEMP:  61; 6HR MAX TEMP:  64; 6HR PCP: TRACE;

FLINT          CLOUDY    61  54  77 N12       29.87R
6HR MIN TEMP:  61; 6HR MAX TEMP:  63; 6HR PCP:  0.30;

GROSSE ILE     CLOUDY    64  57  77 N13G21    29.79R
HILLSDALE      CLOUDY    62  60  91 NW10      29.88R
6HR MIN TEMP:  62; 6HR MAX TEMP:  63;

HOWELL         CLOUDY    59  56  91 N6        29.86R

CITY           SKY/WX    TMP DP  RH WIND       PRES   REMARKS
JACKSON        CLOUDY    62  57  83 VRB7      29.88R
6HR MIN TEMP:  59; 6HR MAX TEMP:  62;

LAMBERTVILLE   CLOUDY    63  59  88 NW8       29.83R
LANSING        MOSUNNY   60  56  86 N7        29.90R
6HR MIN TEMP:  59; 6HR MAX TEMP:  63; 6HR PCP: TRACE;

LAPEER         CLOUDY    58  54  84 N8G18     29.85R
MASON          CLOUDY    60  56  86 N10       29.89R
MONROE         CLOUDY    64  59  82 NW12G18   29.80R
MT. CLEMENS    CLOUDY    62  57  82 NW17      29.79R
6HR MIN TEMP:  62; 6HR MAX TEMP:  63; 6HR PCP:  0.01;

PONTIAC        CLOUDY    59  54  83 N13       29.83R
6HR MIN TEMP:  59; 6HR MAX TEMP:  62; 6HR PCP:  0.01;

PORT HOPE        N/A     60  52  74 N17G28    29.84R
6HR MIN TEMP:  60; 6HR MAX TEMP:  64; 6HR PCP:  0.01;

PORT HURON     CLOUDY    61  57  88 N8        29.79R
TRI CITIES     CLOUDY    61  54  77 N13       29.90R
6HR MIN TEMP:  60; 6HR MAX TEMP:  64; 6HR PCP: TRACE;

TROY           CLOUDY    61  55  82 N10G20    29.83R
SAGINAW HB     CLOUDY    61  55  82 N12G17    29.87R
$$
MIZ043>046-050>051-056>058-064>065-071>073-077>080-281300-
SOUTHWEST LOWER MICHIGAN

CITY           SKY/WX    TMP DP  RH WIND       PRES   REMARKS
BATTLE CREEK   PTSUNNY   60  56  86 N9        29.92R
6HR MIN TEMP:  60; 6HR MAX TEMP:  63;

BENTON HARBOR  CLOUDY    58  54  86 MISG      29.96R
6HR MIN TEMP:  58; 6HR MAX TEMP:  62;

BIG RAPIDS     PTSUNNY   56  56 100 N3        29.94R
6HR MIN TEMP:  55; 6HR MAX TEMP:  60;

COLDWATER      CLOUDY    64  58  82 NW10      29.90R
6HR MIN TEMP:  63; 6HR MAX TEMP:  64;

FREMONT        CLOUDY    56  54  94 N9G16     29.95R
6HR MIN TEMP:  54; 6HR MAX TEMP:  61;

HOLLAND        PTSUNNY   58  54  86 NW5       29.96R
6HR MIN TEMP:  57; 6HR MAX TEMP:  64;

GRAND RAPIDS   PTSUNNY   58  55  90 N10       29.93R
6HR MIN TEMP:  58; 6HR MAX TEMP:  65; 6HR PCP: TRACE;

IONIA          FAIR      57  55  92 NW6       29.91R
KALAMAZOO      CLOUDY    60  55  83 N10       29.93R
6HR MIN TEMP:  59; 6HR MAX TEMP:  64;

LUDINGTON      CLOUDY    55  51  88 N8        29.99R
6HR MIN TEMP:  55; 6HR MAX TEMP:  57;

MARSHALL       CLOUDY    59  56  88 NW7       29.90R
MOUNT PLEASANT SUNNY     57  55  92 NW6       29.91R
6HR MIN TEMP:  56; 6HR MAX TEMP:  63;

MUSKEGON       CLOUDY    57  52  83 N15G23    29.97R
6HR MIN TEMP:  57; 6HR MAX TEMP:  62;

SOUTH HAVEN    CLOUDY    57  55  95 N13       29.96R
$$
MIZ016>042-281300-
NORTHERN LOWER MICHIGAN

CITY           SKY/WX    TMP DP  RH WIND       PRES   REMARKS
ALPENA         CLOUDY    57  48  72 N15       29.92R
6HR MIN TEMP:  56; 6HR MAX TEMP:  62;

BEAVER ISLAND  SUNNY     51  46  84 N10G16    30.01R
6HR MIN TEMP:  50; 6HR MAX TEMP:  55;

BELLAIRE       CLOUDY    56  52  85 N6        29.96R
6HR MIN TEMP:  55; 6HR MAX TEMP:  60;

CADILLAC       CLOUDY    54  53  95 N7        29.95R
CHARLEVOIX     CLOUDY    55  48  75 NE13G21   30.00R
6HR MIN TEMP:  55; 6HR MAX TEMP:  62;

FRANKFORT      CLOUDY    56  48  76 N8        29.99R
GAYLORD        CLOUDY    53  47  79 N7        29.95R
6HR MIN TEMP:  53; 6HR MAX TEMP:  58;

GRAYLING       CLOUDY    56  52  85 N9        29.95R
6HR MIN TEMP:  54; 6HR MAX TEMP:  61;

HARBOR SPRINGS SUNNY     53  47  81 N6        29.97R
HOUGHTON LAKE  CLOUDY    56  51  84 N8        29.94R
6HR MIN TEMP:  54; 6HR MAX TEMP:  62;

MANISTEE       CLOUDY    55  48  76 N10       29.99R
OSCODA         CLOUDY    58  48  69 N13       29.89R
PELLSTON       MOSUNNY   52  46  80 N9        29.98R
6HR MIN TEMP:  50; 6HR MAX TEMP:  58;

ROGERS CITY    CLOUDY    55  48  79 N12       29.95R
TRAVERSE CITY  CLOUDY    58  52  80 N12       29.96R
6HR MIN TEMP:  57; 6HR MAX TEMP:  62;

$$
MIZ007>008-015-281300-
EASTERN UPPER MICHIGAN

CITY           SKY/WX    TMP DP  RH WIND       PRES   REMARKS
KINROSS        CLOUDY    50  45  81 N8        29.98S
6HR MIN TEMP:  46; 6HR MAX TEMP:  55;

MACKINAC ISLAN SUNNY     51  44  78 N10G17    29.98R
6HR MIN TEMP:  50; 6HR MAX TEMP:  57;

NEWBERRY       CLOUDY    45  42  89 NW7       30.01S
S. S. MARIE    CLOUDY    53  41  63 NW7       29.98R
6HR MIN TEMP:  50; 6HR MAX TEMP:  57;

MUNISING         N/A     52  45  77 CALM      30.05R
6HR MIN TEMP:  49; 6HR MAX TEMP:  55;

$$
MIZ004>006-011>014-085-281300-
CENTRAL UPPER MICHIGAN

CITY           SKY/WX    TMP DP  RH WIND       PRES   REMARKS
MANISTIQUE     SUNNY     47  43  83 N6        30.03R
6HR MIN TEMP:  44; 6HR MAX TEMP:  49;

ESCANABA       SUNNY     48  43  81 NW7       30.06R
6HR MIN TEMP:  46; 6HR MAX TEMP:  52;

MENOMINEE      SUNNY     50  43  76 N8        30.06R
6HR MIN TEMP:  48; 6HR MAX TEMP:  55;

SAWYER-GWINN   CLOUDY    46  43  87 N3        30.08R
$$
MIZ001>003-009>011-084-281300-
WESTERN UPPER MICHIGAN

CITY           SKY/WX    TMP DP  RH WIND       PRES   REMARKS
IRON MOUNTAIN  MOSUNNY   49  46  90 NW5       30.08R
6HR MIN TEMP:  45; 6HR MAX TEMP:  52;

COPPER HARBOR    N/A     54  47  77 CALM      30.06R
6HR MIN TEMP:  48; 6HR MAX TEMP:  54;

IRONWOOD       PTSUNNY   52  52 100 W6        30.11S
$$

ABBREVIATIONS USED IN REMARKS
   TC - TEMPERATURE IN CELSIUS
  WCI - WIND CHILL INDEX
   HX - HEAT INDEX
  VSB - VISIBILITY




USA.gov is the U.S. government's official web portal to all federal, state and local government web resources and services.